Weather History for Phuket, Thailand

Change the Weather History Date:

Sunday, March 11, 2012

  Actual Average Record
Temperature  
Mean Temperature 82 °F -  
Max Temperature 91 °F 92 °F 98 °F (1998)
Min Temperature 74 °F 76 °F 71 °F (2007)
Cooling Degree Days 18    
Growing Degree Days 32 (Base 50)    
Moisture  
Dew Point 74 °F    
Average Humidity 73    
Maximum Humidity 100    
Minimum Humidity 49    
Precipitation  
Precipitation 0.00 in 0.13 in - ()
Sea Level Pressure  
Sea Level Pressure 29.77 in    
Wind  
Wind Speed 4 mph ()    
Max Wind Speed 15 mph    
Max Gust Speed -    
Visibility 5.8 miles    
Events      
Averages and records for this station are not official NWS values.
T = Trace of Precipitation, MM = Missing Value Source: Averaged Metar Reports

Daily Weather History Graph

Daily Weather History Graph

Search for Another Location

Airport:

Trip Planner

Search our weather history database for the weather conditions in past years. The results will help you decide how hot, cold, wet, or windy it might be!

Date:

Astronomy

Mar. 11, 2012 Rise Set
Actual Time 6:35 AM ICT 6:38 PM ICT
Civil Twilight 6:14 AM ICT 6:58 PM ICT
Nautical Twilight 5:50 AM ICT 7:23 PM ICT
Astronomical Twilight 5:26 AM ICT 7:47 PM ICT
Moon 9:27 PM ICT (3/11) 8:39 AM ICT (3/11)
Length of Visible Light 12h 44m
Length of Day
12h 02m
Waning Gibbous, 89% of the Moon is Illuminated
Mar 11
Waning Gibbous
Mar 15
Last Quarter
Mar 22
New
Mar 31
First Quarter
Apr 7
Full

Hourly Weather History & Observations

Time (ICT) Temp. Heat Index Dew Point Humidity Pressure Visibility Wind Dir Wind Speed Gust Speed Precip Events Conditions
12:00 AM 78.8 °F - 75.2 °F 89% 29.80 in 5.0 mi Calm Calm - N/A   Mostly Cloudy
12:30 AM 78.8 °F - 77.0 °F 94% 29.80 in 5.0 mi Calm Calm - N/A   Mostly Cloudy
1:00 AM 79 °F - 76 °F 90% 29.77 in 6 mi Calm Calm - -   Scattered Clouds
1:00 AM 80.6 °F 87.1 °F 77.0 °F 89% 29.77 in 5.0 mi Calm Calm - N/A   Mostly Cloudy
1:30 AM 78.8 °F - 78.8 °F 100% 29.77 in 5.0 mi Calm Calm - N/A   Mostly Cloudy
2:00 AM 78.8 °F - 78.8 °F 100% 29.77 in 5.0 mi Calm Calm - N/A   Mostly Cloudy
2:30 AM 78.8 °F - 78.8 °F 100% 29.74 in 5.0 mi Calm Calm - N/A   Mostly Cloudy
3:00 AM 78.8 °F - 75.2 °F 89% 29.74 in 5.0 mi Variable 1.2 mph - N/A   Mostly Cloudy
3:30 AM 80.6 °F 85.4 °F 73.4 °F 79% 29.74 in 5.0 mi ESE 6.9 mph - N/A   Mostly Cloudy
4:00 AM 78.8 °F - 73.4 °F 83% 29.74 in 5.0 mi Variable 2.3 mph - N/A   Mostly Cloudy
4:30 AM 80.6 °F 85.4 °F 73.4 °F 79% 29.74 in 5.0 mi Calm Calm - N/A   Mostly Cloudy
5:00 AM 78.8 °F - 73.4 °F 83% 29.74 in 5.0 mi Variable 2.3 mph - N/A   Mostly Cloudy
5:30 AM 78.8 °F - 73.4 °F 83% 29.74 in 5.0 mi Calm Calm - N/A   Mostly Cloudy
6:00 AM 80.6 °F 85.4 °F 73.4 °F 79% 29.74 in 5.0 mi East 6.9 mph - N/A   Mostly Cloudy
6:30 AM 80.6 °F 85.4 °F 73.4 °F 79% 29.74 in 5.6 mi ESE 5.8 mph - N/A   Mostly Cloudy
7:00 AM 80 °F - 74 °F 79% 29.73 in 6 mi Calm Calm - -   Scattered Clouds
7:00 AM 80.6 °F 85.4 °F 73.4 °F 79% 29.74 in 6.2 mi SSE 4.6 mph - N/A   Mostly Cloudy
7:30 AM 82.4 °F 88.2 °F 73.4 °F 74% 29.77 in 6.2 mi East 10.4 mph - N/A   Mostly Cloudy
8:00 AM 84.2 °F 90.9 °F 73.4 °F 70% 29.77 in 6.2 mi East 13.8 mph - N/A   Mostly Cloudy
8:30 AM 84.2 °F 90.9 °F 73.4 °F 70% 29.77 in 6.2 mi East 13.8 mph - N/A   Mostly Cloudy
9:00 AM 84.2 °F 90.9 °F 73.4 °F 70% 29.80 in 6.2 mi East 13.8 mph - N/A   Mostly Cloudy
9:30 AM 86.0 °F 93.4 °F 73.4 °F 66% 29.80 in 6.2 mi East 15.0 mph - N/A   Mostly Cloudy
10:00 AM 86.0 °F 93.4 °F 73.4 °F 66% 29.80 in 6.2 mi East 13.8 mph - N/A   Mostly Cloudy
10:30 AM 87.8 °F 97.6 °F 75.2 °F 66% 29.80 in 6.2 mi East 15.0 mph - N/A   Mostly Cloudy
11:00 AM 87.8 °F 97.6 °F 75.2 °F 66% 29.80 in 6.2 mi East 15.0 mph - N/A   Mostly Cloudy
11:30 AM 87.8 °F 95.6 °F 73.4 °F 62% 29.80 in 6.2 mi East 15.0 mph - N/A   Mostly Cloudy
12:00 PM 87.8 °F 95.6 °F 73.4 °F 62% 29.80 in 6.2 mi East 13.8 mph - N/A   Mostly Cloudy
12:30 PM 89.6 °F 98.2 °F 73.4 °F 59% 29.77 in 6.2 mi ENE 15.0 mph - N/A   Mostly Cloudy
1:00 PM 90 °F - 75 °F 54% 29.77 in 6 mi ENE 6.9 mph - -   Scattered Clouds
1:00 PM 89.6 °F 98.2 °F 73.4 °F 59% 29.77 in 6.2 mi East 13.8 mph - N/A   Mostly Cloudy
1:30 PM 91.4 °F 100.1 °F 73.4 °F 55% 29.74 in 6.2 mi East 9.2 mph - N/A   Mostly Cloudy
2:30 PM 91.4 °F 100.1 °F 73.4 °F 55% 29.74 in 6.2 mi ENE 9.2 mph - N/A   Mostly Cloudy
3:00 PM 91.4 °F 98.4 °F 71.6 °F 52% 29.71 in 6.2 mi East 9.2 mph - N/A   Mostly Cloudy
3:30 PM 91.4 °F 96.8 °F 69.8 °F 49% 29.71 in 6.2 mi ENE 11.5 mph - N/A   Mostly Cloudy
4:00 PM 91.4 °F 96.8 °F 69.8 °F 49% 29.71 in 6.2 mi East 9.2 mph - N/A   Mostly Cloudy
4:30 PM 91.4 °F 96.8 °F 69.8 °F 49% 29.71 in 6.2 mi ENE 6.9 mph - N/A   Mostly Cloudy
5:00 PM 91.4 °F 96.8 °F 69.8 °F 49% 29.71 in 6.2 mi East 9.2 mph - N/A   Scattered Clouds
5:30 PM 91.4 °F 96.8 °F 69.8 °F 49% 29.71 in 6.2 mi East 9.2 mph - N/A   Scattered Clouds
6:00 PM 89.6 °F 94.7 °F 69.8 °F 52% 29.71 in 6.2 mi ESE 9.2 mph - N/A   Scattered Clouds
6:30 PM 86.0 °F 91.8 °F 71.6 °F 62% 29.74 in 6.2 mi Calm Calm - N/A   Scattered Clouds
7:00 PM 88 °F - 73 °F 53% 29.72 in 6 mi Calm Calm - -   Scattered Clouds
7:00 PM 82.4 °F 88.2 °F 73.4 °F 74% 29.77 in 6.2 mi Calm Calm - N/A   Mostly Cloudy
7:30 PM 82.4 °F 88.2 °F 73.4 °F 74% 29.80 in 6.2 mi West 4.6 mph - N/A   Scattered Clouds
8:00 PM 84.2 °F 90.9 °F 73.4 °F 70% 29.80 in 6.2 mi WNW 5.8 mph - N/A   Mostly Cloudy
8:30 PM 80.6 °F 87.1 °F 77.0 °F 89% 2.95 in 5.6 mi Calm Calm - N/A   Mostly Cloudy
9:00 PM 82.4 °F 90.9 °F 77.0 °F 84% 29.83 in 5.6 mi NW 4.6 mph - N/A   Mostly Cloudy
9:30 PM 80.6 °F 87.1 °F 77.0 °F 89% 29.83 in 5.6 mi Calm Calm - N/A   Mostly Cloudy
10:00 PM 80.6 °F 86.2 °F 75.2 °F 84% 29.83 in - ESE 2.3 mph - N/A   Mostly Cloudy
10:30 PM 80.6 °F 86.2 °F 75.2 °F 84% 29.86 in 5.6 mi West 3.5 mph - N/A   Mostly Cloudy
11:00 PM 80.6 °F 85.4 °F 73.4 °F 79% 29.86 in 5.6 mi Calm Calm - N/A   Mostly Cloudy
11:30 PM 78.8 °F - 75.2 °F 89% 29.86 in 5.6 mi Calm Calm - N/A   Mostly Cloudy